Location: Chervonnoye
(48.6000°N, 34.4000°E)
Time: 19:30:42
(UTC+00:00)

RS-44 - Pass Details

Date: 30 November 2021
Orbit: 1175 x 1510 km, 82.5° (Epoch: 19 January)

Event Time Altitude Azimuth Distance (km) Brightness Sun altitude
Rises 03:50:10 0° 352° (N) 4,115 ? -13.0°
Reaches altitude 10° 03:52:53 10° 357° (N) 3,173 ? -12.6°
Maximum altitude 04:00:09 54° 74° (ENE) 1,512 ? -11.5°
Drops below altitude 10° 04:07:51 10° 151° (SSE) 3,368 ? -10.3°
Sets 04:10:49 0° 155° (SSE) 4,385 ? -9.8°
